Location: Newark
(13.4819°N, 12.8431°E)
Time: 13:44:29
(UTC+00:00)

ISS - Visible Passes

Search period start: 22 October 2019 00:00
Search period end: 01 November 2019 00:00
Orbit: 411 x 421 km, 51.6° (Epoch: 22 October)

Date Brightness Start Highest point End Pass type
(mag) Time Alt. Az. Time Alt. Az. Time Alt. Az.
22 Oct -1.0 03:08:54 16° SE 03:09:25 17° SE 03:11:39 10° E visible
23 Oct -3.3 03:57:08 37° WNW 03:57:22 38° NW 04:00:31 10° NNE visible
24 Oct -0.7 03:12:01 11° NE 03:12:01 11° NE 03:12:10 10° NE visible
